Flag for Czech Republic Weather past 2 weeks in Brno, Czech Republic

Now
55 °F

Passing clouds.


Feels Like: 55 °F
Forecast: 44 / 73 °F
Wind: 2 mph from Northeast

Location: Brno / Turany

Current Time: Aug 22, 2014 at 12:09:29 AM

Latest Report: Aug 21, 2014 at 11:00 PM


Visibility: 19 mi

Pressure: 30.07 "Hg

Humidity: 89%

Dew point: 52 °F

Location of BrnoLocation

Historic Weather in Brno — Graph

°F

Brno temperature yesterday

Maximum temperature yesterday: 65 °F (at 3:00 PM)
Minimum temperature yesterday: 55 °F (at 8:00 AM)
Average temperature yesterday: 59 °F

Past Weeks' High & Low Weather Summary

 TemperatureHumidityPressure
High84 °F (Aug 9, 3:00 PM)97% (Aug 12, 6:00 AM)30.07 "Hg (Aug 12, 6:00 AM)
Low50 °F (Aug 17, 6:00 AM)39% (Aug 8, 6:00 PM)29.66 "Hg (Aug 13, 9:00 PM)
Average65 °F75%29.93 "Hg
* Reported Aug 6 11:00 PM — Aug 21 11:00 PM, Brno, Weather by CustomWeather, © 2014

Note: Actual official high and low records may vary slightly from our data, if they occured in-between our weather recording intervals... More about our weather records

Advertising

Brno weather history for previous 24 hours

 ConditionsComfort  
Time TempWeatherWind HumidityBarometerVisibility
11:00 PM
Aug 21
55 °FPassing clouds.2 mph89%30.07 "Hg19 mi
10:00 PM56 °FPassing clouds.2 mph88%30.06 "Hg19 mi
9:00 PM58 °FPassing clouds.1 mph88%30.05 "Hg19 mi
8:00 PM59 °FPassing clouds.2 mph82%30.03 "Hg25 mi
7:00 PM61 °FPassing clouds.1 mph74%30.02 "Hg25 mi
6:00 PM62 °FScattered clouds.2 mph77%30.01 "Hg25 mi
5:00 PM61 °FThunderstorms. Partly sunny.2 mph78%30.02 "Hg11 mi
4:00 PM61 °FThundershowers. Overcast.3 mph77%30.02 "Hg9 mi
3:00 PM65 °FSprinkles. Overcast.3 mph60%30.01 "Hg25 mi
2:00 PM64 °FPartly sunny.3 mph59%30.01 "Hg25 mi
1:00 PM65 °FPartly sunny.3 mph68%30.02 "Hg25 mi
12:00 PM63 °FPartly sunny.1 mph69%30.03 "Hg19 mi
11:00 AM60 °FPartly sunny.1 mph77%30.03 "Hg16 mi
10:00 AM57 °FPartly sunny.1 mph90%30.03 "Hg12 mi
9:00 AM56 °FLight rain. Low clouds.2 mph91%30.04 "Hg11 mi
8:00 AM55 °FLight rain. Low clouds.2 mph97%30.03 "Hg4 mi
7:00 AM55 °FLight rain. Low clouds.1 mph97%30.02 "Hg2 mi
6:00 AM55 °FLight rain. Low clouds.1 mph97%30.01 "Hg3 mi
5:00 AM55 °FLight rain. Low clouds.2 mph97%30.00 "Hg5 mi
4:00 AM56 °FLight rain. Low clouds.1 mph97%29.99 "Hg4 mi
3:00 AM57 °FLight rain. Low clouds.1 mph95%30.01 "Hg2 mi
2:00 AM57 °FLight rain. Overcast.1 mph95%30.01 "Hg5 mi
1:00 AM57 °FLight rain. Overcast.3 mph93%30.02 "Hg6 mi
12:00 AM58 °FLight rain. Overcast.1 mph93%30.00 "Hg7 mi
Weather by CustomWeather, © 2014

See weather overviewHow to use our weather pages